Location: Unspecified
(49.2170°N, 0.0000°E)
Time: 00:26:33
(UTC+00:00)

Transit 4A - Pass Details

Date: 19 June 2019
Orbit: 862 x 982 km, 66.8° (Epoch: 21 July)

Event Time Altitude Azimuth Distance (km) Brightness Sun altitude
Rises 15:44:15 0° 323° (NW) 3,697 11.3 39.7°
Reaches altitude 10° 15:47:07 10° 332° (NNW) 2,745 10.7 39.2°
Maximum altitude 15:52:55 34° 37° (NE) 1,553 9.1 38.3°
Drops below altitude 10° 15:58:37 10° 101° (E) 2,698 10.0 37.4°
Sets 16:01:24 0° 111° (ESE) 3,625 10.6 36.9°
